GW1975 Weather Reports


Display with metric or nautical units.
time (UTC)temp
F
wind
direction
speed
MPH
gust
MPH
rain 1hr
in
rain 24hr
in
rain mn
in
humidity
%
barometer
mb
20260906223735 89 327 2.0 4.0 0.00 0.00 0.00 47 1014.0
20260906223237 90 35 3.0 5.0 0.00 0.00 0.00 48 1014.0
20260906222736 89 26 1.0 4.0 0.00 0.00 0.00 48 1014.0
20260906222235 89 20 0.0 3.0 0.00 0.00 0.00 48 1014.0
20260906221735 90 326 2.0 5.0 0.00 0.00 0.00 49 1014.0
20260906221235 89 2 0.0 2.0 0.00 0.00 0.00 49 1015.0
20260906220735 89 73 0.0 3.0 0.00 0.00 0.00 49 1015.0
20260906220235 89 353 4.0 4.0 0.00 0.00 0.00 48 1015.0
20260906215736 89 7 3.0 5.0 0.00 0.00 0.00 49 1015.0
20260906215235 89 360 5.0 7.0 0.00 0.00 0.00 49 1015.0
20260906214735 89 310 3.0 5.0 0.00 0.00 0.00 52 1015.0
20260906214236 89 264 0.0 4.0 0.00 0.00 0.00 51 1015.0
20260906213735 89 341 2.0 4.0 0.00 0.00 0.00 51 1015.0
20260906213236 89 281 4.0 5.0 0.00 0.00 0.00 52 1015.0
20260906212735 89 6 2.0 5.0 0.00 0.00 0.00 52 1015.0
20260906212235 88 330 2.0 4.0 0.00 0.00 0.00 53 1015.0
20260906211735 88 308 3.0 5.0 0.00 0.00 0.00 54 1015.0
20260906211235 88 31 5.0 5.0 0.00 0.00 0.00 54 1015.0
20260906210735 87 309 1.0 7.0 0.00 0.00 0.00 55 1016.0
20260906210235 87 255 0.0 3.0 0.00 0.00 0.00 55 1015.0
20260906205735 87 222 1.0 4.0 0.00 0.00 0.00 53 1015.0
20260906205236 87 26 2.0 4.0 0.00 0.00 0.00 54 1015.0
20260906204735 87 242 1.0 4.0 0.00 0.00 0.00 54 1016.0
20260906204235 87 11 3.0 5.0 0.00 0.00 0.00 54 1016.0
20260906203736 87 351 3.0 5.0 0.00 0.00 0.00 55 1016.0
20260906203235 86 67 2.0 5.0 0.00 0.00 0.00 56 1015.0
20260906202735 87 52 3.0 6.0 0.00 0.00 0.00 55 1015.0
20260906202235 87 106 4.0 6.0 0.00 0.00 0.00 55 1016.0
20260906201735 86 18 2.0 5.0 0.00 0.00 0.00 56 1016.0
20260906201235 86 352 3.0 4.0 0.00 0.00 0.00 56 1016.0
20260906200735 86 309 4.0 5.0 0.00 0.00 0.00 56 1016.0
20260906200235 86 215 0.0 5.0 0.00 0.00 0.00 59 1016.0
20260906195735 86 330 4.0 4.0 0.00 0.00 0.00 58 1016.0
20260906195236 86 317 3.0 5.0 0.00 0.00 0.00 58 1016.0
20260906194735 86 336 3.0 6.0 0.00 0.00 0.00 57 1016.0
20260906194235 86 360 3.0 5.0 0.00 0.00 0.00 59 1016.0
20260906193735 85 29 2.0 4.0 0.00 0.00 0.00 59 1016.0
20260906193236 85 298 1.0 5.0 0.00 0.00 0.00 60 1016.0
20260906192735 85 346 5.0 6.0 0.00 0.00 0.00 61 1016.0
20260906192235 84 231 0.0 6.0 0.00 0.00 0.00 63 1016.0
20260906191735 84 314 1.0 4.0 0.00 0.00 0.00 61 1016.0
20260906191236 84 6 2.0 5.0 0.00 0.00 0.00 62 1016.0
20260906190735 84 161 2.0 5.0 0.00 0.00 0.00 63 1016.0
20260906190236 84 253 1.0 5.0 0.00 0.00 0.00 62 1017.0
20260906185735 84 323 4.0 5.0 0.00 0.00 0.00 63 1016.0
20260906185235 84 115 3.0 4.0 0.00 0.00 0.00 64 1017.0
20260906184735 84 352 2.0 3.0 0.00 0.00 0.00 65 1017.0
20260906184235 83 13 2.0 3.0 0.00 0.00 0.00 65 1017.0
20260906183735 83 18 5.0 5.0 0.00 0.00 0.00 66 1017.0
20260906183236 83 33 2.0 4.0 0.00 0.00 0.00 66 1017.0
20260906182736 82 35 4.0 4.0 0.00 0.00 0.00 67 1017.0
20260906182235 83 309 2.0 4.0 0.00 0.00 0.00 67 1017.0
20260906181737 82 115 3.0 3.0 0.00 0.00 0.00 68 1017.0
20260906181235 82 353 3.0 5.0 0.00 0.00 0.00 69 1017.0
20260906180735 82 316 2.0 5.0 0.00 0.00 0.00 68 1017.0
20260906180235 82 359 2.0 6.0 0.00 0.00 0.00 69 1017.0
20260906175735 81 5 0.0 3.0 0.00 0.00 0.00 70 1017.0
20260906175235 81 108 4.0 7.0 0.00 0.00 0.00 70 1017.0
20260906174736 81 353 2.0 5.0 0.00 0.00 0.00 70 1017.0
20260906174235 81 100 3.0 5.0 0.00 0.00 0.00 70 1018.0
20260906173735 81 318 1.0 3.0 0.00 0.00 0.00 71 1018.0
20260906173237 80 119 3.0 3.0 0.00 0.00 0.00 72 1018.0
20260906172735 80 113 1.0 5.0 0.00 0.00 0.00 73 1018.0
20260906172238 80 36 4.0 5.0 0.00 0.00 0.00 74 1018.0
20260906171735 80 13 0.0 5.0 0.00 0.00 0.00 73 1018.0
20260906171235 79 193 0.0 5.0 0.00 0.00 0.00 73 1018.0
20260906170735 79 184 2.0 3.0 0.00 0.00 0.00 75 1018.0
20260906170235 79 217 0.0 4.0 0.00 0.00 0.00 75 1018.0
20260906165737 79 35 0.0 7.0 0.00 0.00 0.00 74 1018.0
20260906165235 79 56 0.0 7.0 0.00 0.00 0.00 74 1018.0
20260906164735 79 65 3.0 5.0 0.00 0.00 0.00 74 1018.0
20260906164235 79 106 2.0 5.0 0.00 0.00 0.00 74 1019.0
20260906163735 79 360 2.0 6.0 0.00 0.00 0.00 73 1018.0
20260906163236 79 82 2.0 5.0 0.00 0.00 0.00 73 1018.0
20260906162735 79 37 4.0 6.0 0.00 0.00 0.00 73 1018.0
20260906162235 79 36 0.0 4.0 0.00 0.00 0.00 72 1018.0
20260906161735 80 102 2.0 3.0 0.00 0.00 0.00 73 1018.0
20260906161235 80 246 1.0 4.0 0.00 0.00 0.00 71 1018.0
20260906160736 80 80 1.0 3.0 0.00 0.00 0.00 72 1018.0
20260906160235 79 354 3.0 4.0 0.00 0.00 0.00 72 1018.0
20260906155735 80 52 1.0 4.0 0.00 0.00 0.00 71 1018.0
20260906155235 80 329 5.0 5.0 0.00 0.00 0.00 71 1018.0
20260906154739 80 313 2.0 5.0 0.00 0.00 0.00 71 1018.0
20260906154235 80 332 3.0 5.0 0.00 0.00 0.00 71 1018.0
20260906153735 80 34 0.0 4.0 0.00 0.00 0.00 70 1018.0
20260906153235 81 193 2.0 6.0 0.00 0.00 0.00 69 1018.0
20260906152735 80 320 2.0 5.0 0.00 0.00 0.00 70 1018.0
20260906152236 80 54 2.0 5.0 0.00 0.00 0.00 71 1017.0
20260906151736 79 84 3.0 3.0 0.00 0.00 0.00 73 1017.0
20260906151235 78 120 1.0 5.0 0.00 0.00 0.00 73 1017.0
20260906150735 78 11 2.0 3.0 0.00 0.00 0.00 74 1017.0
20260906150236 78 254 5.0 5.0 0.00 0.00 0.00 75 1017.0
20260906145735 78 345 2.0 3.0 0.00 0.00 0.00 76 1017.0
20260906145236 78 328 2.0 4.0 0.00 0.00 0.00 75 1017.0
20260906144735 78 43 3.0 3.0 0.00 0.00 0.00 74 1017.0
20260906144235 79 2 2.0 5.0 0.00 0.00 0.00 73 1017.0
20260906143735 79 218 1.0 4.0 0.00 0.00 0.00 72 1017.0
20260906143236 79 52 2.0 4.0 0.00 0.00 0.00 72 1017.0
20260906142735 79 325 3.0 6.0 0.00 0.00 0.00 71 1017.0
20260906142235 79 60 2.0 5.0 0.00 0.00 0.00 71 1017.0
20260906141735 79 318 2.0 4.0 0.00 0.00 0.00 72 1017.0
20260906141236 79 81 2.0 5.0 0.00 0.00 0.00 71 1017.0
20260906140735 79 36 2.0 5.0 0.00 0.00 0.00 72 1017.0
20260906140235 78 196 1.0 4.0 0.00 0.00 0.00 73 1017.0
20260906135735 78 302 0.0 2.0 0.00 0.00 0.00 75 1017.0
20260906135236 78 30 4.0 5.0 0.00 0.00 0.00 74 1017.0
20260906134735 78 28 2.0 4.0 0.00 0.00 0.00 74 1017.0
20260906134235 78 1 3.0 5.0 0.00 0.00 0.00 75 1017.0
20260906133735 78 16 1.0 1.0 0.00 0.00 0.00 76 1017.0
20260906133235 77 87 0.0 5.0 0.00 0.00 0.00 76 1017.0
20260906132735 77 166 0.0 3.0 0.00 0.00 0.00 77 1017.0
20260906132235 78 54 2.0 4.0 0.00 0.00 0.00 77 1017.0
20260906131737 78 266 0.0 3.0 0.00 0.00 0.00 77 1017.0
20260906131235 77 293 0.0 2.0 0.00 0.00 0.00 79 1017.0
20260906130736 77 289 1.0 2.0 0.00 0.00 0.00 79 1017.0
20260906130236 77 23 0.0 3.0 0.00 0.00 0.00 80 1017.0
20260906125735 76 255 0.0 2.0 0.00 0.00 0.00 81 1017.0
20260906125235 76 303 1.0 3.0 0.00 0.00 0.00 81 1017.0
20260906124735 76 337 2.0 4.0 0.00 0.00 0.00 82 1017.0
20260906124235 76 54 2.0 3.0 0.00 0.00 0.00 82 1017.0
20260906123735 76 342 2.0 4.0 0.00 0.00 0.00 83 1016.0
20260906123235 76 245 1.0 2.0 0.00 0.00 0.00 83 1016.0
20260906122737 76 1 4.0 5.0 0.00 0.00 0.00 83 1016.0
20260906122235 76 264 1.0 2.0 0.00 0.00 0.00 83 1016.0
20260906121735 76 329 2.0 2.0 0.00 0.00 0.00 83 1016.0
20260906121235 76 48 1.0 3.0 0.00 0.00 0.00 83 1016.0
20260906120737 76 360 0.0 1.0 0.00 0.00 0.00 83 1016.0
20260906120235 76 343 1.0 2.0 0.00 0.00 0.00 82 1016.0
20260906115735 76 317 2.0 2.0 0.00 0.00 0.00 83 1016.0
20260906115235 76 261 0.0 1.0 0.00 0.00 0.00 82 1016.0
20260906114735 76 277 0.0 2.0 0.00 0.00 0.00 82 1016.0
20260906114235 76 345 1.0 2.0 0.00 0.00 0.00 82 1016.0
20260906113735 76 302 0.0 3.0 0.00 0.00 0.00 82 1016.0
20260906113236 76 318 0.0 2.0 0.00 0.00 0.00 82 1016.0
20260906112736 76 258 0.0 1.0 0.00 0.00 0.00 81 1016.0
20260906112235 76 247 0.0 1.0 0.00 0.00 0.00 81 1016.0
20260906111735 76 286 1.0 2.0 0.00 0.00 0.00 82 1016.0
20260906111235 77 272 0.0 3.0 0.00 0.00 0.00 82 1016.0
20260906110735 77 272 1.0 2.0 0.00 0.00 0.00 82 1016.0
20260906110235 77 297 0.0 2.0 0.00 0.00 0.00 81 1016.0
20260906105735 77 278 1.0 2.0 0.00 0.00 0.00 81 1016.0
20260906105235 77 292 1.0 2.0 0.00 0.00 0.00 80 1015.0
20260906104736 77 287 1.0 2.0 0.00 0.00 0.00 80 1015.0
20260906104236 77 240 0.0 2.0 0.00 0.00 0.00 80 1015.0
20260906103735 77 272 1.0 2.0 0.00 0.00 0.00 79 1015.0
20260906103235 78 313 1.0 3.0 0.00 0.00 0.00 79 1015.0
20260906102735 78 338 1.0 3.0 0.00 0.00 0.00 79 1015.0
20260906102235 78 42 2.0 3.0 0.00 0.00 0.00 79 1015.0
20260906101735 78 15 2.0 2.0 0.00 0.00 0.00 78 1015.0
20260906101235 78 127 2.0 2.0 0.00 0.00 0.00 79 1015.0
20260906100735 78 336 0.0 2.0 0.00 0.00 0.00 78 1015.0
20260906100235 78 261 1.0 1.0 0.00 0.00 0.00 78 1015.0
20260906095735 78 322 0.0 2.0 0.00 0.00 0.00 78 1015.0
20260906095235 78 1 0.0 4.0 0.00 0.00 0.00 78 1015.0
20260906094735 79 330 1.0 2.0 0.00 0.00 0.00 78 1015.0
20260906094235 79 315 0.0 2.0 0.00 0.00 0.00 78 1015.0
20260906093735 79 49 2.0 4.0 0.00 0.00 0.00 78 1015.0
20260906093235 79 298 0.0 3.0 0.00 0.00 0.00 78 1015.0
20260906092735 79 97 1.0 3.0 0.00 0.00 0.00 78 1015.0
20260906092235 79 307 0.0 3.0 0.00 0.00 0.00 78 1015.0
20260906091735 79 286 0.0 4.0 0.00 0.00 0.00 78 1015.0
20260906091236 80 320 0.0 3.0 0.00 0.00 0.00 78 1015.0
20260906090735 80 320 0.0 3.0 0.00 0.00 0.00 78 1015.0
20260906090235 80 280 1.0 2.0 0.00 0.00 0.00 77 1015.0
20260906085736 80 55 3.0 3.0 0.00 0.00 0.00 76 1015.0
20260906085235 80 15 3.0 3.0 0.00 0.00 0.00 76 1015.0
20260906084736 81 23 2.0 4.0 0.00 0.00 0.00 76 1015.0
20260906084235 81 352 1.0 4.0 0.00 0.00 0.00 76 1014.0
20260906083736 81 51 2.0 3.0 0.00 0.00 0.00 77 1014.0
20260906083235 81 347 0.0 5.0 0.00 0.00 0.00 77 1014.0
20260906082735 81 37 3.0 4.0 0.00 0.00 0.00 77 1014.0
20260906082235 82 340 2.0 3.0 0.00 0.00 0.00 75 1015.0
20260906081735 82 78 0.0 2.0 0.00 0.00 0.00 74 1014.0
20260906081235 82 81 0.0 3.0 0.00 0.00 0.00 73 1015.0
20260906080735 82 139 1.0 3.0 0.00 0.00 0.00 73 1015.0
20260906080235 82 145 0.0 4.0 0.00 0.00 0.00 74 1014.0
20260906075736 82 317 1.0 3.0 0.00 0.00 0.00 75 1014.0
20260906075235 82 52 2.0 5.0 0.00 0.00 0.00 75 1014.0
20260906074735 82 18 3.0 4.0 0.00 0.00 0.00 76 1014.0
20260906074238 82 99 2.0 5.0 0.00 0.00 0.00 76 1014.0
20260906073735 82 63 1.0 4.0 0.00 0.00 0.00 76 1014.0
20260906073235 82 356 0.0 2.0 0.00 0.00 0.00 76 1014.0
20260906072736 83 67 0.0 3.0 0.00 0.00 0.00 76 1014.0
20260906072235 83 124 1.0 4.0 0.00 0.00 0.00 76 1014.0
20260906071735 83 102 5.0 5.0 0.00 0.00 0.00 76 1014.0
20260906071236 83 168 0.0 2.0 0.00 0.00 0.00 75 1014.0
20260906070735 83 203 0.0 3.0 0.00 0.00 0.00 75 1014.0
20260906070236 84 329 0.0 2.0 0.00 0.00 0.00 74 1014.0
20260906065735 84 190 0.0 2.0 0.00 0.00 0.00 74 1014.0
20260906065235 84 99 1.0 5.0 0.00 0.00 0.00 74 1014.0
20260906064735 84 106 4.0 5.0 0.00 0.00 0.00 73 1014.0
20260906064236 84 235 1.0 2.0 0.00 0.00 0.00 73 1014.0
20260906063735 84 327 0.0 3.0 0.00 0.00 0.00 73 1015.0
20260906063235 85 109 4.0 4.0 0.00 0.00 0.00 72 1015.0
20260906062735 85 231 1.0 4.0 0.00 0.00 0.00 71 1014.0
20260906062235 85 49 0.0 3.0 0.00 0.00 0.00 71 1015.0
20260906061735 85 148 0.0 3.0 0.00 0.00 0.00 70 1014.0
20260906061235 86 346 0.0 4.0 0.00 0.00 0.00 70 1014.0
20260906060735 86 119 2.0 3.0 0.00 0.00 0.00 69 1015.0
20260906060235 86 140 1.0 4.0 0.00 0.00 0.00 69 1015.0
20260906055735 86 33 4.0 4.0 0.00 0.00 0.00 69 1015.0
20260906055236 86 101 0.0 4.0 0.00 0.00 0.00 69 1014.0
20260906054735 86 349 3.0 4.0 0.00 0.00 0.00 69 1014.0
20260906054235 86 45 2.0 2.0 0.00 0.00 0.00 68 1014.0
20260906053737 87 97 2.0 3.0 0.00 0.00 0.00 68 1014.0
20260906053235 87 325 1.0 3.0 0.00 0.00 0.00 68 1014.0
20260906052735 87 232 0.0 2.0 0.00 0.00 0.00 68 1015.0
20260906052237 87 322 0.0 2.0 0.00 0.00 0.00 67 1014.0
20260906051739 87 308 1.0 2.0 0.00 0.00 0.00 67 1015.0
20260906051236 87 89 0.0 2.0 0.00 0.00 0.00 67 1015.0
20260906050735 87 304 0.0 3.0 0.00 0.00 0.00 66 1015.0
20260906050236 87 230 0.0 2.0 0.00 0.00 0.00 66 1014.0
20260906045736 87 330 0.0 2.0 0.00 0.00 0.00 66 1014.0
20260906045235 87 107 1.0 1.0 0.00 0.00 0.00 65 1014.0
20260906044735 87 254 0.0 2.0 0.00 0.00 0.00 65 1014.0
20260906044235 88 164 1.0 1.0 0.00 0.00 0.00 65 1014.0
20260906043735 88 263 1.0 2.0 0.00 0.00 0.00 64 1014.0
20260906043236 88 315 0.0 2.0 0.00 0.00 0.00 64 1014.0
20260906042735 88 160 1.0 3.0 0.00 0.00 0.00 64 1014.0
20260906042235 88 333 0.0 2.0 0.00 0.00 0.00 63 1014.0
20260906041735 89 126 0.0 2.0 0.00 0.00 0.00 63 1014.0
20260906041235 89 230 2.0 3.0 0.00 0.00 0.00 62 1014.0
20260906040735 89 304 0.0 3.0 0.00 0.00 0.00 62 1014.0
20260906040235 89 171 0.0 2.0 0.00 0.00 0.00 61 1014.0
20260906035735 89 315 0.0 3.0 0.00 0.00 0.00 61 1014.0
20260906035236 89 193 0.0 2.0 0.00 0.00 0.00 60 1014.0
20260906034735 89 8 2.0 3.0 0.00 0.00 0.00 60 1014.0
20260906034235 89 332 1.0 2.0 0.00 0.00 0.00 59 1014.0
20260906033735 89 310 0.0 3.0 0.00 0.00 0.00 59 1014.0
20260906033236 89 319 2.0 3.0 0.00 0.00 0.00 58 1014.0
20260906032735 90 80 0.0 2.0 0.00 0.00 0.00 57 1014.0
20260906032235 90 346 2.0 4.0 0.00 0.00 0.00 57 1014.0
20260906031735 90 8 0.0 6.0 0.00 0.00 0.00 56 1014.0
20260906031235 90 33 4.0 4.0 0.00 0.00 0.00 56 1014.0
20260906030735 90 344 1.0 3.0 0.00 0.00 0.00 55 1014.0
20260906030237 90 346 1.0 2.0 0.00 0.00 0.00 54 1014.0
20260906025735 89 298 2.0 4.0 0.00 0.00 0.00 54 1014.0
20260906025235 89 306 1.0 2.0 0.00 0.00 0.00 54 1014.0
20260906024735 89 314 0.0 2.0 0.00 0.00 0.00 55 1014.0
20260906024235 89 259 2.0 2.0 0.00 0.00 0.00 54 1014.0
20260906023735 89 265 2.0 3.0 0.00 0.00 0.00 54 1014.0
20260906023235 89 271 0.0 2.0 0.00 0.00 0.00 53 1014.0
20260906022735 89 255 0.0 2.0 0.00 0.00 0.00 53 1013.0
20260906022235 89 307 0.0 2.0 0.00 0.00 0.00 53 1013.0
20260906021735 90 266 1.0 2.0 0.00 0.00 0.00 53 1013.0
20260906021235 90 251 2.0 2.0 0.00 0.00 0.00 53 1013.0
20260906020735 90 266 1.0 2.0 0.00 0.00 0.00 52 1013.0
20260906020235 90 266 1.0 2.0 0.00 0.00 0.00 52 1013.0
20260906015736 90 296 2.0 2.0 0.00 0.00 0.00 52 1013.0
20260906015236 90 255 1.0 2.0 0.00 0.00 0.00 53 1013.0
20260906014735 90 269 1.0 2.0 0.00 0.00 0.00 53 1013.0
20260906014235 91 262 2.0 2.0 0.00 0.00 0.00 53 1013.0
20260906013735 91 258 2.0 2.0 0.00 0.00 0.00 51 1013.0
20260906013236 91 271 1.0 2.0 0.00 0.00 0.00 51 1013.0
20260906012735 92 252 1.0 2.0 0.00 0.00 0.00 50 1013.0
20260906012235 92 262 0.0 2.0 0.00 0.00 0.00 50 1013.0
20260906011736 92 333 1.0 2.0 0.00 0.00 0.00 50 1013.0
20260906011236 92 258 1.0 2.0 0.00 0.00 0.00 49 1013.0
20260906010735 93 262 1.0 2.0 0.00 0.00 0.00 49 1013.0
20260906010235 93 266 0.0 2.0 0.00 0.00 0.00 48 1013.0
20260906005735 93 301 0.0 3.0 0.00 0.00 0.00 48 1012.0
20260906005235 93 313 1.0 2.0 0.00 0.00 0.00 47 1012.0
20260906004736 93 324 2.0 3.0 0.00 0.00 0.00 47 1012.0
20260906004235 94 314 1.0 3.0 0.00 0.00 0.00 47 1012.0
20260906003735 94 268 2.0 2.0 0.00 0.00 0.00 46 1012.0
20260906003235 94 308 1.0 2.0 0.00 0.00 0.00 46 1012.0
20260906002735 95 259 1.0 2.0 0.00 0.00 0.00 46 1012.0
20260906002235 95 259 2.0 2.0 0.00 0.00 0.00 45 1012.0
20260906001735 95 195 0.0 2.0 0.00 0.00 0.00 45 1012.0
20260906001235 95 232 2.0 2.0 0.00 0.00 0.00 44 1012.0
20260906000735 95 355 3.0 3.0 0.00 0.00 0.00 44 1012.0
20260906000235 95 319 3.0 3.0 0.00 0.00 0.00 43 1012.0
20260905235735 96 260 1.0 2.0 0.00 0.00 0.00 44 1012.0
20260905235235 96 308 2.0 3.0 0.00 0.00 0.00 43 1012.0
20260905234735 96 281 1.0 3.0 0.00 0.00 0.00 44 1012.0
20260905234235 96 277 2.0 2.0 0.00 0.00 0.00 44 1012.0
20260905233735 97 283 1.0 2.0 0.00 0.00 0.00 43 1012.0
20260905233235 97 257 1.0 3.0 0.00 0.00 0.00 43 1012.0
20260905232735 97 280 3.0 4.0 0.00 0.00 0.00 42 1012.0
20260905232235 97 296 3.0 4.0 0.00 0.00 0.00 42 1013.0
20260905231735 97 285 3.0 4.0 0.00 0.00 0.00 41 1012.0
20260905231235 97 285 3.0 5.0 0.00 0.00 0.00 42 1013.0
20260905230735 97 303 4.0 5.0 0.00 0.00 0.00 41 1012.0
20260905230236 98 283 3.0 6.0 0.00 0.00 0.00 40 1013.0
20260905225735 99 304 4.0 5.0 0.00 0.00 0.00 39 1012.0
20260905225235 99 286 3.0 4.0 0.00 0.00 0.00 39 1012.0
20260905224735 99 304 0.0 3.0 0.00 0.00 0.00 40 1012.0
20260905224235 99 266 3.0 5.0 0.00 0.00 0.00 40 1012.0